This demonstration page uses our WeatherBlox Daily Observations layout. Learn more.

Left ArrowRight Arrow

Hourly Observations for December 15, 2019

Temp ( °F °C ) Dew Point ( °F °C ) Humidity (%) Winds ( mph kmh ) Pressure ( in mb ) Visibility ( mi km ) Precip ( " mm )
12:53 am 00:53 Cloudy 17 -8.3 13 -10.6 84 84 WNW 6 9 29.91 1013 10 16 0.00 0.00
1:53 am 01:53 Cloudy 18 -7.8 14 -10 84 84 WSW 7 11 29.91 1013 10 16 0.00 0.00
2:53 am 02:53 Cloudy 18 -7.8 14 -10 84 84 WSW 12 19 29.91 1013 10 16 0.00 0.00
3:53 am 03:53 Cloudy 18 -7.8 14 -10 84 84 SW 9 15 29.92 1013 10 16 0.00 0.00
4:53 am 04:53 Cloudy 19 -7.2 14 -10 81 81 SW 14 22 29.91 1013 10 16 0.00 0.00
5:53 am 05:53 Cloudy 21 -6.1 16 -8.9 81 81 SW 13 20 29.91 1013 10 16 0.00 0.00
6:53 am 06:53 Cloudy 20 -6.7 16 -8.9 85 85 WSW 10 17 29.94 1014 10 16 0.00 0.00
7:53 am 07:53 Cloudy 21 -6.1 16 -8.9 81 81 WSW 10 17 29.94 1014 10 16 0.00 0.00
8:53 am 08:53 Cloudy 20 -6.7 16 -8.9 85 85 SW 7 11 29.97 1015 10 16 0.00 0.00
9:14 am 09:14 Cloudy 20 -6.7 16 -8.9 85 85 WSW 7 11 30.02 1017 10 16 0.00 0.00
9:36 am 09:36 Cloudy 21 -6 16 -9 80 80 WSW 6 9 30.03 1017 10 16 0.00 0.00
9:53 am 09:53 Cloudy 20 -6.7 16 -8.9 85 85 W 3 6 30.00 1016 10 16 0.00 0.00
10:53 am 10:53 Cloudy 20 -6.7 15 -9.4 81 81 WNW 8 13 30.01 1016 10 16 0.00 0.00
11:53 am 11:53 Cloudy with Light Snow 20 -6.7 16 -8.9 85 85 SSW 6 9 30.00 1016 10 16 0.00 0.00
12:53 pm 12:53 Cloudy with Light Snow 22 -5.6 17 -8.3 82 82 W 3 6 29.99 1016 9 14 0.00 0.00
1:53 pm 13:53 Cloudy with Light Snow 23 -5 18 -7.8 81 81 W 6 9 30.00 1016 9 14 0.00 0.00
2:53 pm 14:53 Cloudy 22 -5.6 18 -7.8 85 85 SW 7 11 30.01 1016 10 16 0.00 0.00
3:53 pm 15:53 Cloudy with Light Snow 21 -6.1 17 -8.3 85 85 SSW 5 7 30.02 1017 9 14 0.00 0.00
4:53 pm 16:53 Cloudy with Light Snow 20 -6.7 15 -9.4 81 81 SSW 6 9 30.03 1017 10 16 0.00 0.00
5:53 pm 17:53 Cloudy with Light Snow 18 -7.8 15 -9.4 88 88 Calm 30.03 1017 9 14 0.00 0.00
6:53 pm 18:53 Cloudy 19 -7.2 16 -8.9 88 88 WNW 3 6 30.03 1017 10 16 0.00 0.00
7:53 pm 19:53 Cloudy 18 -7.8 15 -9.4 88 88 WSW 3 6 30.03 1017 10 16 0.00 0.00
8:53 pm 20:53 Cloudy 18 -7.8 15 -9.4 88 88 WSW 9 15 30.04 1017 10 16 0.00 0.00
9:53 pm 21:53 Cloudy 17 -8.3 14 -10 88 88 SW 10 17 30.05 1018 10 16 0.00 0.00
10:53 pm 22:53 Cloudy 18 -7.8 15 -9.4 88 88 SSW 9 15 30.06 1018 10 16 0.00 0.00
11:53 pm 23:53 Partly Cloudy 14 -10 11 -11.7 88 88 WSW 10 17 30.08 1019 10 16 0.00 0.00

Powered by AerisWeather